Change the Weather History Date:

Wednesday, September 11, 2013

  Actual Average (KRIL) Record (KRIL)
Temperature  
Mean Temperature 50 °F 63 °F  
Max Temperature 55 °F 80 °F 95 °F (1990)
Min Temperature 46 °F 46 °F 31 °F (1962)
Degree Days  
Heating Degree Days 14 3  
Month to date heating degree days 21  
Since 1 July heating degree days 28  
Cooling Degree Days 0 1  
Month to date cooling degree days 17  
Year to date cooling degree days 533  
Moisture  
Dew Point 48 °F    
Average Humidity 95    
Maximum Humidity 100    
Minimum Humidity 82    
Precipitation  
Precipitation 0.00 in 0.05 in 0.74 in (1977)
Month to date precipitation 0.54  
Year to date precipitation 9.51  
Sea Level Pressure  
Sea Level Pressure 30.50 in    
Wind  
Wind Speed 1 mph (NW)    
Max Wind Speed 7 mph    
Max Gust Speed -    
Visibility 8 miles    
Events Fog , Rain , Thunderstorm    
T = Trace of Precipitation, MM = Missing Value Source: NWS Daily Summary

Daily Weather History Graph

Daily Weather History Graph

Search for Another Location

Airport or City:

Trip Planner

Search our weather history database for the weather conditions in past years. The results will help you decide how hot, cold, wet, or windy it might be!

Date:

Astronomy

Sep. 11, 2013 Rise Set
Actual Time 6:47 AM MDT 7:23 PM MDT
Civil Twilight 6:20 AM MDT 7:51 PM MDT
Nautical Twilight 5:48 AM MDT 8:22 PM MDT
Astronomical Twilight 5:15 AM MDT 8:55 PM MDT
Moon 1:16 PM MDT (9/11) 11:24 PM MDT (9/11)
Length of Visible Light 13h 30m
Length of Day
12h 36m
Waxing Crescent, 39% of the Moon is Illuminated
Sep 11
Waxing Crescent
Sep 12
First Quarter
Sep 19
Full
Sep 26
Last Quarter
Oct 4
New

Hourly Weather History & Observations

Time (MDT) Temp. Windchill Dew Point Humidity Pressure Visibility Wind Dir Wind Speed Gust Speed Precip Events Conditions
12:16 AM 50.0 °F - 48.2 °F 94% 30.47 in 0.2 mi ENE 3.5 mph - N/A Rain Light Rain
12:36 AM 50.0 °F - 48.2 °F 94% 30.47 in 0.2 mi Calm Calm - N/A Fog Fog
12:56 AM 50.0 °F - 48.2 °F 94% 30.46 in 0.2 mi Calm Calm - N/A   Light Drizzle
1:16 AM 48.2 °F - 48.2 °F 100% 30.46 in 0.5 mi Calm Calm - N/A Fog Fog
1:36 AM 48.2 °F - 46.4 °F 93% 30.47 in 5.0 mi Calm Calm - N/A   Overcast
1:56 AM 46.4 °F - 46.4 °F 100% 30.46 in 5.0 mi Calm Calm - N/A   Overcast
2:16 AM 46.4 °F 45.2 °F 46.4 °F 100% 30.46 in 4.0 mi ESE 3.5 mph - N/A   Overcast
2:36 AM 46.4 °F - 46.4 °F 100% 30.46 in 7.0 mi Calm Calm - N/A   Overcast
2:55 AM 46.4 °F - 46.4 °F 100% 30.47 in 7.0 mi Calm Calm - N/A   Overcast
3:16 AM 46.4 °F - 46.4 °F 100% 30.46 in 10.0 mi Calm Calm - N/A   Overcast
3:36 AM 46.4 °F - 46.4 °F 100% 30.46 in 10.0 mi Calm Calm - N/A   Overcast
3:55 AM 46.4 °F - 46.4 °F 100% 30.46 in 10.0 mi Calm Calm - N/A   Overcast
4:16 AM 46.4 °F 44.3 °F 46.4 °F 100% 30.46 in 10.0 mi ESE 4.6 mph - N/A   Overcast
4:36 AM 46.4 °F - 46.4 °F 100% 30.46 in 10.0 mi Calm Calm - N/A   Overcast
4:56 AM 46.4 °F - 46.4 °F 100% 30.46 in 10.0 mi Calm Calm - N/A   Overcast
5:16 AM 46.4 °F - 46.4 °F 100% 30.46 in 10.0 mi Calm Calm - N/A   Overcast
5:36 AM 46.4 °F - 46.4 °F 100% 30.47 in 10.0 mi Calm Calm - N/A   Overcast
5:56 AM 46.4 °F - 46.4 °F 100% 30.48 in 10.0 mi Calm Calm - N/A Rain Rain
6:16 AM 46.4 °F - 46.4 °F 100% 30.48 in 7.0 mi Calm Calm - N/A Rain Light Rain
6:36 AM 46.4 °F - 46.4 °F 100% 30.48 in 7.0 mi Calm Calm - N/A Rain Light Rain
6:56 AM 46.4 °F - 46.4 °F 100% 30.48 in 10.0 mi Calm Calm - N/A   Mostly Cloudy
7:16 AM 46.4 °F - 46.4 °F 100% 30.49 in 10.0 mi Calm Calm - N/A   Mostly Cloudy
7:36 AM 46.4 °F - 46.4 °F 100% 30.48 in 10.0 mi Calm Calm - N/A   Overcast
7:56 AM 48.2 °F - 46.4 °F 93% 30.48 in 10.0 mi Calm Calm - N/A   Overcast
8:16 AM 48.2 °F - 46.4 °F 93% 30.49 in 10.0 mi Calm Calm - N/A   Overcast
8:36 AM 50.0 °F - 50.0 °F 100% 30.49 in 10.0 mi Calm Calm - N/A   Overcast
8:56 AM 50.0 °F - 50.0 °F 100% 30.50 in 10.0 mi Calm Calm - N/A   Overcast
9:15 AM 51.8 °F - 50.0 °F 94% 30.50 in 10.0 mi Calm Calm - N/A   Overcast
9:35 AM 53.6 °F - 50.0 °F 88% 30.50 in 10.0 mi Calm Calm - N/A   Overcast
9:56 AM 53.6 °F - 50.0 °F 88% 30.51 in 10.0 mi Calm Calm - N/A   Overcast
10:16 AM 51.8 °F - 50.0 °F 94% 30.51 in 10.0 mi Calm Calm - N/A   Overcast
10:36 AM 51.8 °F - 50.0 °F 94% 30.52 in 10.0 mi Calm Calm - N/A   Overcast
10:56 AM 51.8 °F - 50.0 °F 94% 30.52 in 10.0 mi Calm Calm - N/A   Overcast
11:16 AM 51.8 °F - 50.0 °F 94% 30.52 in 10.0 mi Calm Calm - N/A   Overcast
11:36 AM 53.6 °F - 50.0 °F 88% 30.52 in 10.0 mi Calm Calm - N/A   Overcast
11:56 AM 53.6 °F - 50.0 °F 88% 30.52 in 10.0 mi Calm Calm - N/A Rain Light Rain
12:16 PM 53.6 °F - 51.8 °F 94% 30.51 in 10.0 mi Calm Calm - N/A   Overcast
12:35 PM 51.8 °F - 50.0 °F 94% 30.51 in 10.0 mi NNW 4.6 mph - N/A   Overcast
12:56 PM 50.0 °F - 48.2 °F 94% 30.51 in 1.2 mi Calm Calm - N/A   Overcast
1:16 PM 50.0 °F - 46.4 °F 87% 30.51 in 10.0 mi WNW 3.5 mph - N/A Rain , Thunderstorm Light Thunderstorms and Rain
1:35 PM 50.0 °F - 48.2 °F 94% 30.50 in 7.0 mi Calm Calm - N/A Rain Light Rain
1:56 PM 51.8 °F - 50.0 °F 94% 30.50 in 0.5 mi Calm Calm - N/A Fog , Thunderstorm Fog
2:15 PM 50.0 °F - 50.0 °F 100% 30.50 in 0.2 mi NW 6.9 mph - N/A Rain Rain
2:35 PM 48.2 °F - 48.2 °F 100% 30.50 in 0.2 mi WNW 5.8 mph - N/A Rain , Thunderstorm Rain
2:55 PM 50.0 °F - 48.2 °F 94% 30.51 in 0.2 mi Calm Calm - N/A Rain Heavy Rain
3:16 PM 50.0 °F - 48.2 °F 94% 30.51 in 1.5 mi WSW 3.5 mph - N/A Rain , Thunderstorm Light Thunderstorms and Rain
3:35 PM 50.0 °F - 50.0 °F 100% 30.50 in 7.0 mi Calm Calm - N/A Rain Light Rain
3:56 PM 53.6 °F - 53.6 °F 100% 30.50 in 10.0 mi WSW 3.5 mph - N/A Rain Light Rain
4:16 PM 53.6 °F - 51.8 °F 94% 30.50 in 10.0 mi WSW 4.6 mph - N/A   Mostly Cloudy
4:35 PM 55.4 °F - 53.6 °F 94% 30.50 in 10.0 mi Calm Calm - N/A   Mostly Cloudy
4:55 PM 55.4 °F - 51.8 °F 88% 30.50 in 10.0 mi SW 3.5 mph - N/A Thunderstorm Thunderstorm
5:15 PM 55.4 °F - 53.6 °F 94% 30.50 in 5.0 mi Calm Calm - N/A Rain Light Rain
5:36 PM 53.6 °F - 51.8 °F 94% 30.50 in 10.0 mi SW 3.5 mph - N/A Thunderstorm Thunderstorm
5:57 PM 51.8 °F - 50.0 °F 94% 30.51 in 10.0 mi Calm Calm - N/A Thunderstorm Overcast
6:17 PM 53.6 °F - 50.0 °F 88% 30.51 in 10.0 mi Calm Calm - N/A   Overcast
6:37 PM 51.8 °F - 48.2 °F 88% 30.51 in 10.0 mi Calm Calm - N/A Rain Light Rain
6:57 PM 51.8 °F - 50.0 °F 94% 30.51 in 7.0 mi Calm Calm - N/A Rain Light Rain
7:17 PM 50.0 °F - 46.4 °F 87% 30.50 in 10.0 mi NNW 3.5 mph - N/A Rain Light Rain
7:37 PM 50.0 °F - 46.4 °F 87% 30.51 in 10.0 mi Calm Calm - N/A Thunderstorm Mostly Cloudy
7:56 PM 50.0 °F - 44.6 °F 82% 30.51 in 10.0 mi Calm Calm - N/A Thunderstorm Scattered Clouds
8:17 PM 50.0 °F - 46.4 °F 87% 30.52 in 10.0 mi North 3.5 mph - N/A   Scattered Clouds
8:36 PM 48.2 °F - 46.4 °F 93% 30.53 in 10.0 mi NE 3.5 mph - N/A   Scattered Clouds
8:56 PM 48.2 °F - 46.4 °F 93% 30.53 in 10.0 mi NNE 3.5 mph - N/A   Mostly Cloudy
9:17 PM 46.4 °F 45.2 °F 46.4 °F 100% 30.54 in 10.0 mi NNE 3.5 mph - N/A Thunderstorm Thunderstorm
9:36 PM 48.2 °F - 46.4 °F 93% 30.54 in 10.0 mi Calm Calm - N/A   Mostly Cloudy
9:57 PM 50.0 °F - 48.2 °F 94% 30.54 in 5.0 mi Calm Calm - N/A Rain Light Rain
10:16 PM 50.0 °F - 48.2 °F 94% 30.54 in 1.2 mi Calm Calm - N/A   Overcast
10:37 PM 50.0 °F - 48.2 °F 94% 30.54 in 4.0 mi SE 3.5 mph - N/A   Overcast
10:57 PM 50.0 °F - 48.2 °F 94% 30.54 in 1.0 mi Calm Calm - N/A Rain Rain
11:17 PM 48.2 °F - 46.4 °F 93% 30.53 in 7.0 mi Calm Calm - N/A Rain Light Rain
11:37 PM 48.2 °F - 46.4 °F 93% 30.53 in 7.0 mi Calm Calm - N/A   Overcast
11:57 PM 48.2 °F - 48.2 °F 100% 30.53 in 0.8 mi Calm Calm - N/A   Overcast